Location: H?ebe?
(50.1359°N, 14.1634°E)
Time: 05:57:42
(UTC+00:00)

Daily predictions for brighter satellites

Satellite Brightness Start Highest point End
(mag) Time Altitude Azimuth Time Altitude Azimuth Time Altitude Azimuth
Cosmos 2227 Rocket 3.1 00:02:37 10° NW 00:07:35 32° WSW 00:09:27 26° SW
Cosmos 1844 Rocket 3.9 00:03:35 10° NNW 00:08:55 41° NE 00:14:10 10° ESE
GENESIS II 3.6 00:14:11 50° ESE 00:14:11 50° ESE 00:16:41 10° NE
CZ-2D R/B 4.3 00:12:59 10° NE 00:16:15 16° E 00:19:29 10° SE
Cosmos 1238 Rocket 3.7 00:12:25 10° N 00:17:37 66° ENE 00:20:49 21° SSE
IDEFIX/ARIANE 42P 3.5 00:13:25 10° NNE 00:18:17 39° E 00:21:28 19° SSE
Landsat 4 2.9 00:18:25 59° SE 00:18:51 79° ENE 00:21:39 10° NNW
Cosmos 2360 Rocket 4.3 00:21:56 10° SE 00:25:23 17° E 00:28:51 10° ENE
H-2A R/B 4.0 00:22:44 10° NE 00:26:00 21° E 00:28:59 11° SE
Cosmos 2221 2.4 00:22:10 10° N 00:26:27 88° W 00:28:33 29° S
SeaSat 1 3.6 00:25:20 10° ESE 00:29:56 42° NE 00:34:34 10° NNW
Okean 1 3.3 00:27:13 10° NNW 00:30:52 54° W 00:32:02 37° SSW
Nimbus 7 Rocket 4.5 00:27:02 10° NNE 00:33:08 87° ESE 00:36:59 24° SSW
Cosmos 1812 Rocket 3.6 00:29:04 10° NNW 00:33:24 61° W 00:35:20 31° SSW
Cosmos 1125 Rocket 4.3 00:30:24 20° WSW 00:33:46 44° WNW 00:38:49 10° NNE
Nadezhda 1 Rocket 4.1 00:30:57 10° NNW 00:37:03 61° W 00:40:51 24° SSW
SL-23 DEB 3.8 00:36:43 37° S 00:37:07 39° SSE 00:40:11 10° E
Cosmos 1346 Rocket 3.6 00:35:27 23° SSE 00:37:16 40° E 00:40:46 10° NNE
Cosmos 1269 Rocket 4.4 00:32:00 10° NNW 00:37:17 65° ENE 00:42:32 10° SE
Cosmos 2150 Rocket 4.1 00:36:24 26° SSW 00:39:33 83° WNW 00:45:03 10° NNE
CENTAUR R/B 3.6 00:37:30 17° SSE 00:40:54 31° ESE 00:46:40 10° NE
H-2A R/B 2.9 00:41:17 30° SW 00:42:26 38° W 00:46:07 10° NNW
Okean 1-7 Rocket 3.6 00:42:59 28° SSW 00:45:19 76° W 00:49:52 10° N
Cosmos 2322 Rocket 3.6 00:43:02 13° SSE 00:47:07 28° ESE 00:51:51 10° NE
Cosmos 1745 Rocket 4.1 00:44:17 23° SSW 00:48:25 69° WNW 00:54:46 10° N
Cosmos 1825 Rocket 3.6 00:46:00 26° S 00:48:26 78° E 00:52:50 10° NNE
ADEOS II 4.0 00:45:40 10° NE 00:49:45 23° E 00:53:50 10° SE
ATLAS 5 CENTAUR R/B 1.9 00:47:03 10° NW 00:51:23 75° NE 00:56:47 10° SE
ALOS 4.2 00:51:28 10° NE 00:54:59 21° E 00:58:29 10° SE
MOZ.5/SAFIR/RUBIN 5/SL-8 3.8 00:52:03 16° SSE 00:55:48 87° ENE 01:00:31 10° NNW
Cosmos 2263 Rocket 3.3 00:52:03 10° NW 00:56:36 26° WSW 00:58:41 20° SW
CZ-2C R/B 3.8 00:56:43 10° N 01:01:04 36° WNW 01:04:01 18° WSW
Cosmos 1709 Rocket 4.1 00:57:16 21° SSW 01:01:43 74° W 01:08:03 10° N
Meteor 1-27 Rocket 3.9 00:57:18 10° N 01:03:17 83° E 01:09:11 10° SSE
Cosmos 2082 4.4 00:58:18 10° NW 01:03:24 35° WSW 01:06:25 21° SSW
Cosmos 2369 4.0 01:01:32 19° SW 01:05:33 59° NW 01:11:09 10° NNE
MSX 3.8 01:00:23 10° NNE 01:06:10 87° ESE 01:10:27 19° SSW
Cosmos 2181 Rocket 4.1 01:01:45 10° N 01:07:56 80° E 01:14:03 10° SSE
SL-16 R/B 4.1 01:06:40 10° ESE 01:12:16 36° ENE 01:17:54 10° N
FENGYUN 3A 3.8 01:08:52 10° NNE 01:14:17 72° ESE 01:18:42 16° S
SL-16 R/B 2.3 01:13:38 19° SSW 01:17:48 75° ESE 01:23:29 10° NNE
Cosmos 2333 Rocket 2.8 01:15:34 15° S 01:20:05 51° ESE 01:25:35 10° NE
Cosmos 1842 Rocket 3.5 01:18:21 10° N 01:22:47 88° W 01:26:56 11° S
USA 276 2.8 01:22:20 25° S 01:22:55 28° SSE 01:25:14 10° E
BREEZE M DEB (TANK) 2.8 01:21:39 10° W 01:24:06 49° SSW 01:29:14 10° ESE
BREEZE-M DEB 3.8 01:12:30 10° W 01:25:04 76° SSW 01:28:36 10° ESE
ATLAS 2AS CENTAUR R/B 3.6 01:20:02 10° WNW 01:25:24 26° WSW 01:29:12 16° SSW
Meteor 2-4 Rocket 3.7 01:21:14 10° N 01:26:38 78° ENE 01:31:59 10° SSE
Cosmos 44 Rocket 3.3 01:25:06 19° SSW 01:28:26 69° SE 01:33:11 10° NE
Cosmos 1707 2.3 01:26:14 10° N 01:29:31 84° ENE 01:32:32 12° S
Cosmos 1743 2.7 01:28:38 22° SW 01:30:32 49° WNW 01:33:49 10° N
Cosmos 1980 Rocket 3.6 01:26:17 10° WSW 01:31:09 29° NW 01:36:03 10° NNE
Meteor 1-5 Rocket 4.4 01:26:02 12° S 01:31:21 72° E 01:36:53 10° NNE
NPP 3.8 01:27:49 10° N 01:33:10 64° WNW 01:37:32 16° SSW
COSMOS 2441 4.4 01:33:00 10° NNE 01:37:56 84° WNW 01:42:10 14° SSW
Cosmos 2151 4.3 01:35:22 14° WSW 01:37:59 26° WNW 01:41:28 10° NNW
KORONAS-FOTON 3.6 01:35:46 10° NNW 01:39:17 59° W 01:42:14 14° S
Nadezhda 3 Rocket 4.2 01:33:07 10° N 01:39:21 72° ENE 01:45:30 10° SSE
Cosmos 1140 Rocket 3.6 01:36:53 10° NNW 01:41:54 53° WSW 01:46:55 10° S
Resurs 1-4 Rocket 2.2 01:37:59 10° NNE 01:43:20 86° ESE 01:48:25 11° SSW
Cosmos 1842 2.9 01:45:26 10° NNW 01:48:48 62° W 01:52:08 10° S
Cosmos 1076 Rocket 4.0 01:46:03 15° SW 01:49:18 45° WNW 01:53:23 10° N
Cosmos 1844 Rocket 3.1 01:47:34 10° NW 01:52:49 42° WSW 01:58:02 10° S
SJ 16-02 3.8 01:49:45 10° N 01:53:20 25° NE 01:56:53 10° ESE
Cosmos 407 Rocket 3.5 01:51:39 10° NNW 01:56:53 70° WSW 02:02:09 10° SSE
CZ-2D R/B 2.1 01:51:39 10° NNE 01:56:54 81° WNW 02:02:05 10° SSW
Cosmos 1844 4.1 01:51:49 10° NW 01:57:10 43° WSW 02:02:33 10° S
IDEFIX/ARIANE 42P 3.5 01:53:01 10° N 01:57:41 35° WNW 02:02:09 11° SW
Cosmos 1151 Rocket 3.3 01:54:33 10° N 01:58:53 72° E 02:03:08 10° SSE
Cosmos 2184 Rocket 4.1 01:54:32 10° SSW 02:00:55 79° W 02:07:21 10° N
Cosmos 2333 4.5 01:55:33 10° SSW 02:01:07 65° ESE 02:06:40 10° NE
H-2A R/B 2.5 01:57:33 10° N 02:01:37 47° WNW 02:05:29 12° SW
Alouette 2 Rocket 4.5 01:57:00 11° SSW 02:01:50 80° WNW 02:09:38 10° NNE
Cosmos 1536 4.3 02:00:39 10° SSE 02:03:57 31° E 02:07:17 10° NNE
SeaSat 1 3.0 02:02:52 10° S 02:07:22 37° WSW 02:11:55 10° NW
ATLAS CENTAUR R/B 3.3 02:05:14 10° SSE 02:07:55 19° ESE 02:10:40 10° ENE
Cosmos 2360 Rocket 2.2 02:03:04 11° SSW 02:08:35 89° NW 02:14:15 10° NNE
Cosmos 1346 Rocket 4.5 02:10:13 10° WSW 02:12:51 18° WNW 02:15:30 10° NNW
Cosmos 2154 Rocket 4.1 02:07:04 10° SSW 02:13:19 74° W 02:19:41 10° N
Cosmos 2278 4.2 02:08:06 10° SW 02:13:33 49° NW 02:19:03 10° NNE
ARIANE 6 FM1 Upper Stage 3.6 02:10:59 10° SSW 02:14:42 38° SE 02:18:26 10° ENE
Cosmos 1733 4.2 02:14:22 11° SW 02:16:40 22° WNW 02:19:05 10° NNW
Cosmos 2219 Rocket 2.4 02:17:40 10° SSW 02:23:15 73° ESE 02:28:50 10° NNE
H-2A R/B 2.7 02:19:57 10° NNE 02:24:46 51° E 02:29:31 10° S
Cosmos 2074 Rocket 4.3 02:20:14 10° SSW 02:26:15 52° WNW 02:32:21 10° N
In-Cosmos 22 4.3 02:23:37 10° N 02:28:57 79° ENE 02:34:19 10° SSE
Cosmos 405 Rocket 2.7 02:26:04 10° S 02:29:15 61° E 02:32:28 10° NNE
ADEOS II 2.3 02:24:33 10° N 02:29:44 61° WNW 02:34:52 10° SSW
Cosmos 1954 Rocket 4.0 02:25:29 10° NNW 02:30:42 88° WSW 02:35:55 10° SSE
Cosmos 676 Rocket 4.3 02:25:33 10° NNW 02:30:45 74° ENE 02:35:56 10° SSE
Cosmos 2322 Rocket 2.5 02:25:16 10° SW 02:30:50 57° NW 02:36:23 10° NNE
CENTAUR R/B 2.8 02:25:04 10° SW 02:30:51 68° NW 02:38:13 10° NE
ALOS 2.6 02:27:50 10° N 02:32:17 52° WNW 02:36:43 10° SW
Iridium 4 Rocket 4.5 02:27:31 10° SSE 02:33:03 55° E 02:38:19 10° N
ATLAS 5 CENTAUR R/B 3.1 02:30:23 10° WNW 02:34:02 22° WSW 02:38:15 10° SSW
NOSS 3-2 (C) 4.4 02:29:51 10° S 02:34:29 36° ESE 02:39:53 10° NE
ACS3 Solar Sail 4.3 02:32:34 10° NE 02:36:16 17° E 02:39:58 10° ESE
